[[{"header":{"parameterUnit":"m.s-1","parameterCategory":2,"la1":30.2991,"la2":30.254,"lo1":-89.0895,"lo2":-89.0444,"dy":0.0017,"dx":0.0017,"nx":28,"ny":28,"refTime":"2025-01-28T03:00:00:Z","depth":"0","parameterNumber":2,"parameterNumberName":"U-component_of_CURRENTS"},"data":[0,0,0,0,0,0,0,0,0,0,0,0,0,0,0,0,0,0,0,0,0,0,0,0,0,0,0,0,0,0,0,0,0,0,0,0,0,0,0,0,0,0,0,0,0,0,0,0,0,0,0,0,0,0,0,0,0,0,-0.259,-0.2591,0,-0.2623,-0.2623,-0.2624,-0.26,-0.2599,-0.2598,-0.2597,-0.2613,-0.2615,-0.2616,0,0,0,0,0,0,0,0,0,0,0,0,0,-0.2518,-0.2519,-0.259,-0.2591,-0.2592,-0.2623,-0.2623,-0.2624,-0.26,-0.2599,-0.2598,-0.2597,-0.2613,-0.2615,-0.2616,0,0,0,0,0,0,0,0,0,0,0,0,0,-0.2548,-0.252,-0.259,-0.2585,-0.2585,-0.2623,-0.2623,-0.2624,-0.26,-0.2599,-0.2598,-0.2596,-0.2613,-0.2614,-0.2616,-0.2655,0,0,-0.2622,-0.2623,0,0,0,0,0,0,0,0,-0.2547,-0.2551,-0.2585,-0.2585,-0.2585,-0.2608,-0.2604,-0.2634,-0.2601,-0.2593,-0.2597,-0.2596,-0.2612,-0.2614,-0.2621,-0.2655,-0.2656,-0.2622,-0.2623,-0.2624,-0.2625,0,0,0,0,0,0,0,-0.2545,-0.2549,-0.2602,-0.2586,-0.2586,-0.2584,-0.2587,-0.2609,-0.2608,-0.2593,-0.2592,-0.2599,-0.2612,-0.2619,-0.2621,-0.2656,-0.2622,-0.2624,-0.2625,-0.2626,-0.2694,-0.2695,0,0,0,0,0,0,-0.2545,-0.2548,-0.2601,-0.2603,-0.2564,-0.2587,-0.259,-0.26,-0.2608,-0.2608,-0.26,-0.2598,-0.2617,-0.2619,-0.2622,-0.2642,-0.2624,-0.2626,-0.2627,-0.2693,-0.2694,-0.2695,0,0,0,0,0,0,-0.2544,-0.255,-0.2599,-0.2577,-0.2583,-0.259,-0.2602,-0.2602,-0.2604,-0.2614,-0.2613,-0.2601,-0.2616,-0.2619,-0.2636,-0.2643,-0.2627,-0.2629,-0.2693,-0.2694,-0.2695,-0.2698,0,0,0,0,0,0,-0.2541,-0.2549,-0.2553,-0.2577,-0.2584,-0.2622,-0.2603,-0.2603,-0.2611,-0.2608,-0.2615,-0.2615,-0.2615,-0.2633,-0.2638,-0.2645,-0.263,-0.2692,-0.2693,-0.2694,-0.2697,-0.2699,-0.2701,0,0,0,0,0,-0.2539,-0.2554,-0.2554,-0.256,-0.2592,-0.2623,-0.2626,-0.2625,-0.2612,-0.262,-0.2619,-0.2615,-0.2644,-0.2635,-0.2641,-0.2649,-0.2691,-0.2693,-0.2694,-0.2696,-0.2699,-0.2701,0,0,0,0,0,0,-0.2525,-0.2554,-0.2554,-0.2577,-0.2597,-0.2619,-0.2626,-0.2628,-0.2635,-0.2628,-0.2628,-0.263,-0.2645,-0.2652,-0.2643,-0.2673,-0.2666,-0.2668,-0.2666,-0.2668,-0.267,-0.2667,-0.2632,0,0,0,0,0,-0.2526,-0.254,-0.257,-0.2585,-0.2597,-0.2611,-0.2621,-0.2625,-0.2638,-0.2638,-0.2643,-0.2649,-0.2659,-0.2666,-0.2678,-0.2702,-0.2688,-0.271,-0.2712,-0.2713,-0.2715,-0.2698,-0.2697,-0.27,-0.27,-0.27,0,0,-0.2524,-0.2541,-0.2548,-0.2582,-0.2594,-0.262,-0.2613,-0.2634,-0.2649,-0.2642,-0.2655,-0.2657,-0.2667,-0.2685,-0.2693,-0.269,-0.2705,-0.2715,-0.2716,-0.2717,-0.2699,-0.2699,-0.2698,-0.2701,-0.2701,-0.2701,0,0,-0.2529,-0.2543,-0.2557,-0.258,-0.2608,-0.2623,-0.263,-0.2655,-0.2657,-0.268,-0.2672,-0.2676,-0.2701,-0.2703,-0.2709,-0.2733,-0.2714,-0.2738,-0.2747,-0.273,-0.2729,-0.2728,-0.2703,-0.27,-0.274,-0.274,-0.274,0,-0.2521,-0.2545,-0.2566,-0.2591,-0.2607,-0.2625,-0.2647,-0.2664,-0.2688,-0.2692,-0.2684,-0.2703,-0.2709,-0.2724,-0.2728,-0.2736,-0.2719,-0.2735,-0.273,-0.2729,-0.2728,-0.2703,-0.27,-0.274,-0.274,-0.274,-0.274,0,-0.2539,-0.256,-0.2573,-0.2606,-0.263,-0.2652,-0.2684,-0.2701,-0.2704,-0.2715,-0.2727,-0.273,-0.2738,-0.2742,-0.2743,-0.2745,-0.2733,-0.2731,-0.272,-0.2728,-0.2701,-0.2698,-0.2741,-0.274,-0.274,-0.274,0,0,-0.2507,-0.2571,-0.2571,-0.2589,-0.2638,-0.2658,-0.2693,-0.2723,-0.2737,-0.2748,-0.2758,-0.2769,-0.2761,-0.2767,-0.2765,-0.2753,-0.2729,-0.274,-0.2739,-0.2707,-0.2681,-0.2598,-0.2586,-0.2721,-0.2721,-0.2721,-0.2662,0,-0.2506,-0.2547,-0.2583,-0.2618,-0.264,-0.2679,-0.271,-0.274,-0.2758,-0.2776,-0.2775,-0.2784,-0.2775,-0.2773,-0.2761,-0.275,-0.272,-0.2744,-0.2686,-0.2684,-0.2602,-0.2579,-0.2479,-0.2411,-0.2658,-0.2657,-0.2657,0,-0.2497,-0.2529,-0.2562,-0.2621,-0.2634,-0.266,-0.2703,-0.2736,-0.2775,-0.2788,-0.2796,-0.2799,-0.28,-0.278,-0.2746,-0.2761,-0.2716,-0.2694,-0.2691,-0.261,-0.2594,-0.2446,-0.2395,-0.2379,-0.2651,-0.2651,-0.2652,0,-0.2441,-0.2507,-0.2527,-0.2549,-0.2623,-0.264,-0.2676,-0.2726,-0.275,-0.2788,-0.28,-0.2807,-0.2799,-0.2767,-0.2725,-0.2735,-0.267,-0.2679,-0.2554,-0.2548,-0.2448,-0.2434,-0.2367,-0.2622,-0.2622,-0.2622,-0.2622,0,-0.2414,-0.2427,-0.2502,-0.2513,-0.2538,-0.2605,-0.2631,-0.2674,-0.2728,-0.2747,-0.2791,-0.2794,-0.2791,-0.276,-0.2724,-0.2622,-0.2663,-0.2543,-0.2522,-0.2446,-0.2433,-0.2404,-0.2442,-0.262,-0.2621,-0.2621,-0.2621,0,-0.2332,-0.2388,-0.2411,-0.2487,-0.2508,-0.2519,-0.2595,-0.2615,-0.2683,-0.2709,-0.2719,-0.2771,-0.2736,-0.2711,-0.2655,-0.2598,-0.2482,-0.2472,-0.2378,-0.2346,-0.2217,-0.2259,-0.2192,-0.2123,-0.2334,-0.2331,-0.2329,0,-0.2288,-0.2293,-0.2363,-0.2373,-0.24,-0.244,-0.2465,-0.2563,-0.2593,-0.2683,-0.2685,-0.2684,-0.2648,-0.2551,-0.2459,-0.2357,-0.2369,-0.2203,-0.2198,-0.2179,-0.2213,-0.2257,-0.2208,-0.2071,-0.2067,-0.2064,-0.2061,0,-0.2191,-0.2216,-0.2238,-0.2262,-0.2287,-0.2321,-0.2373,-0.2396,-0.2507,-0.2536,-0.2562,-0.2546,-0.2473,-0.2336,-0.2213,-0.2143,-0.2162,-0.2129,-0.2134,-0.2013,-0.2034,-0.1967,-0.215,-0.2032,-0.2035,-0.2037,-0.2038,-0.204,-0.2099,-0.2088,-0.2117,-0.2125,-0.2157,-0.2169,-0.2156,-0.2229,-0.2253,-0.2277,-0.237,-0.2322,-0.2255,-0.2069,-0.1988,-0.1839,-0.1921,-0.1792,-0.1848,-0.1897,-0.1816,-0.1926,-0.1771,-0.1773,-0.1774,-0.1775,-0.1776,0,-0.1966,-0.1971,-0.1977,-0.1986,-0.1961,-0.2027,-0.2063,-0.2029,-0.2005,-0.2077,-0.2071,-0.204,-0.1892,-0.1841,-0.1702,-0.1603,-0.1563,-0.1573,-0.1624,-0.1586,-0.1685,-0.1657,-0.144,-0.144,-0.144,-0.144,-0.144,-0.144,-0.1899,-0.1854,-0.1859,-0.1775,-0.178,-0.1713,-0.1701,-0.1665,-0.1687,-0.1638,-0.1669,-0.1699,-0.17,-0.1815,-0.1654,-0.1546,-0.1517,-0.1465,-0.1496,-0.1596,-0.1621,-0.1646,-0.1626,-0.1405,-0.1406,-0.1323,-0.1323,-0.1323]},{"header":{"parameterUnit":"m.s-1","parameterCategory":2,"la1":30.2991,"la2":30.254,"lo1":-89.0895,"lo2":-89.0444,"dy":0.0017,"dx":0.0017,"nx":28,"ny":28,"refTime":"2025-01-28T03:00:00:Z","depth":"0","parameterNumber":3,"parameterNumberName":"V-component_of_CURRENTS"},"data":[0,0,0,0,0,0,0,0,0,0,0,0,0,0,0,0,0,0,0,0,0,0,0,0,0,0,0,0,0,0,0,0,0,0,0,0,0,0,0,0,0,0,0,0,0,0,0,0,0,0,0,0,0,0,0,0,0,0,-0.0266,-0.0265,0,-0.0174,-0.0173,-0.0171,-0.0101,-0.01,-0.01,-0.01,0.0046,0.0049,0.0052,0,0,0,0,0,0,0,0,0,0,0,0,0,-0.0312,-0.0312,-0.0266,-0.0265,-0.0264,-0.0174,-0.0173,-0.0171,-0.0101,-0.01,-0.01,-0.0099,0.0045,0.0049,0.0053,0,0,0,0,0,0,0,0,0,0,0,0,0,-0.0262,-0.0312,-0.0266,-0.022,-0.0215,-0.0174,-0.0172,-0.0171,-0.0101,-0.01,-0.01,-0.0099,0.0043,0.0048,0.0053,0.007,0,0,0.0069,0.0071,0,0,0,0,0,0,0,0,-0.0265,-0.026,-0.0227,-0.0223,-0.0217,-0.015,-0.0136,-0.0088,-0.0101,-0.0142,-0.01,-0.0099,-0.0017,-0.0006,0.0011,0.0077,0.0083,0.0069,0.0072,0.0075,0.0076,0,0,0,0,0,0,0,-0.0269,-0.0263,-0.0228,-0.0227,-0.022,-0.018,-0.0172,-0.0126,-0.0082,-0.0139,-0.0134,-0.0127,-0.0013,0.0006,0.0015,0.0085,0.0069,0.0074,0.0077,0.0079,0.0178,0.0177,0,0,0,0,0,0,-0.0288,-0.0267,-0.0231,-0.0225,-0.0242,-0.018,-0.0171,-0.0171,-0.0084,-0.0071,-0.0127,-0.0124,-0.0003,0.0009,0.0021,0.0045,0.0075,0.0079,0.0082,0.0178,0.0178,0.0177,0,0,0,0,0,0,-0.029,-0.0286,-0.0234,-0.0245,-0.0236,-0.0181,-0.018,-0.0169,-0.0149,-0.0076,-0.0061,-0.0118,-0.0002,0.0013,0.0055,0.0052,0.0082,0.0086,0.0179,0.0178,0.0177,0.0095,0,0,0,0,0,0,-0.0292,-0.0287,-0.0293,-0.0247,-0.0236,-0.0218,-0.018,-0.0168,-0.0147,-0.0141,-0.0064,-0.0049,-0.0,0.0047,0.006,0.0059,0.009,0.0179,0.0178,0.0178,0.0099,0.0092,0.0086,0,0,0,0,0,-0.0294,-0.0306,-0.0294,-0.0289,-0.0246,-0.0219,-0.021,-0.0166,-0.0147,-0.0144,-0.0094,-0.0052,0.0052,0.0051,0.0067,0.0067,0.018,0.0179,0.0178,0.0101,0.0093,0.0086,0,0,0,0,0,0,-0.0324,-0.0299,-0.0284,-0.0287,-0.026,-0.0208,-0.02,-0.0173,-0.0131,-0.0124,-0.0055,-0.0038,-0.0004,0.004,0.0038,0.0092,0.0122,0.0124,0.0059,0.0052,0.0046,0.0033,0.0095,0,0,0,0,0,-0.0337,-0.0342,-0.0306,-0.0308,-0.0299,-0.0252,-0.0235,-0.0209,-0.0166,-0.0147,-0.0095,-0.0041,0.0003,0.0033,0.0078,0.0109,0.0162,0.0119,0.0113,0.0107,0.0107,0.0169,0.0168,0.0174,0.0174,0.0174,0,0,-0.0348,-0.0336,-0.0337,-0.0315,-0.0289,-0.0284,-0.024,-0.0222,-0.0213,-0.0138,-0.011,-0.0062,0.0005,0.0038,0.0058,0.0076,0.0134,0.0106,0.01,0.0103,0.0167,0.0167,0.0167,0.0173,0.0173,0.0173,0,0,-0.038,-0.0364,-0.0381,-0.0366,-0.0339,-0.031,-0.031,-0.0266,-0.024,-0.0211,-0.0157,-0.0113,-0.0045,0.0003,0.0036,0.0023,0.0095,0.0035,0.0002,0.0061,0.0061,0.0062,0.0133,0.014,0.0037,0.0037,0.0037,0,-0.0395,-0.0411,-0.038,-0.0391,-0.0383,-0.0328,-0.0341,-0.0308,-0.0254,-0.0235,-0.0214,-0.0113,-0.0061,-0.0011,-0.0018,0.001,0.0058,0.0023,0.0053,0.0055,0.0057,0.0129,0.0139,0.0033,0.0033,0.0034,0.0034,0,-0.0439,-0.045,-0.0457,-0.0455,-0.0442,-0.0442,-0.04,-0.0378,-0.0342,-0.0303,-0.0252,-0.0178,-0.0116,-0.0096,-0.0059,-0.0019,0.0015,0.0033,0.007,0.0052,0.0129,0.014,0.0027,0.0029,0.003,0.0031,0,0,-0.0478,-0.0489,-0.0491,-0.0506,-0.0478,-0.0474,-0.0457,-0.0425,-0.041,-0.0351,-0.0321,-0.0247,-0.0201,-0.0161,-0.0104,-0.0052,0.0004,-0.0011,-0.0006,0.0055,0.0146,0.0202,0.0221,0.0026,0.0027,0.0028,0.0196,0,-0.0521,-0.0568,-0.0552,-0.0584,-0.0603,-0.0553,-0.0543,-0.0503,-0.0452,-0.0407,-0.0321,-0.0274,-0.0226,-0.0197,-0.0138,-0.003,0.003,-0.0042,0.0159,0.0165,0.0213,0.0234,0.0286,0.0442,0.0208,0.021,0.0211,0,-0.057,-0.0597,-0.0644,-0.0657,-0.0658,-0.0661,-0.0631,-0.0613,-0.0532,-0.049,-0.0418,-0.0347,-0.0255,-0.0219,-0.0038,-0.0086,0.0019,0.0103,0.0112,0.0201,0.0242,0.0423,0.0473,0.0655,0.023,0.0228,0.0227,0,-0.0625,-0.0658,-0.0702,-0.0707,-0.0708,-0.0712,-0.07,-0.064,-0.0622,-0.0538,-0.0505,-0.0386,-0.0317,-0.018,0.0001,-0.0019,0.021,0.0208,0.0362,0.0368,0.0472,0.0485,0.072,0.0332,0.0332,0.0331,0.0331,0,-0.0683,-0.0716,-0.0734,-0.076,-0.08,-0.0772,-0.0785,-0.0749,-0.069,-0.0663,-0.0552,-0.0489,-0.0307,-0.0152,-0.0,0.0233,0.0219,0.0369,0.0417,0.0446,0.0453,0.0663,0.0726,0.0337,0.0336,0.0335,0.0334,0,-0.0737,-0.075,-0.0805,-0.0825,-0.0832,-0.0859,-0.0855,-0.0854,-0.0786,-0.0741,-0.0718,-0.0555,-0.0347,-0.0139,0.0107,0.0241,0.0575,0.053,0.0558,0.0605,0.0888,0.0942,0.1221,0.1342,0.0719,0.0721,0.0724,0,-0.077,-0.0805,-0.086,-0.0896,-0.0909,-0.0939,-0.0953,-0.0909,-0.0899,-0.0771,-0.0749,-0.0546,-0.0379,0.0018,0.0289,0.0588,0.0714,0.0796,0.0759,0.0931,0.1026,0.1061,0.1144,0.0875,0.0878,0.088,0.0882,0,-0.0828,-0.0847,-0.0893,-0.097,-0.1006,-0.1043,-0.1055,-0.1063,-0.099,-0.0917,-0.0775,-0.0627,-0.0234,0.0131,0.0514,0.0692,0.0944,0.0855,0.1037,0.1175,0.1227,0.1357,0.0741,0.0905,0.0903,0.0901,0.09,0.0899,-0.0859,-0.0909,-0.0969,-0.1037,-0.1085,-0.1126,-0.1136,-0.1123,-0.1081,-0.0934,-0.0798,-0.0501,-0.0005,0.0548,0.0757,0.1205,0.115,0.1329,0.1384,0.1407,0.1514,0.0947,0.1152,0.1152,0.1151,0.115,0.115,0,-0.0892,-0.095,-0.1028,-0.1106,-0.1161,-0.1167,-0.118,-0.1129,-0.106,-0.089,-0.0706,-0.0108,0.0399,0.087,0.1463,0.1715,0.1772,0.1842,0.1914,0.1977,0.1496,0.1491,0.1775,0.1775,0.1775,0.1775,0.1775,0.1774,-0.0911,-0.0993,-0.1039,-0.1142,-0.1192,-0.1202,-0.1195,-0.1069,-0.0918,-0.0565,-0.0223,0.005,0.0714,0.1582,0.2141,0.2202,0.2424,0.2412,0.2526,0.2192,0.2148,0.2106,0.212,0.2531,0.2532,0.3005,0.301,0.3013]}],[{"header":{"parameterUnit":"m.s-1","parameterCategory":2,"la1":30.2991,"la2":30.254,"lo1":-89.0895,"lo2":-89.0444,"dy":0.0017,"dx":0.0017,"nx":28,"ny":28,"refTime":"2025-01-28T03:00:00:Z","depth":"2","parameterNumber":2,"parameterNumberName":"U-component_of_CURRENTS"},"data":[0,0,0,0,0,0,0,0,0,0,0,0,0,0,0,0,0,0,0,0,0,0,0,0,0,0,0,0,0,0,0,0,0,0,0,0,0,0,0,0,0,0,0,0,0,0,0,0,0,0,0,0,0,0,0,0,0,0,-0.2333,-0.2334,0,-0.2371,-0.2371,-0.2372,-0.2359,-0.2358,-0.2358,-0.2357,-0.2384,-0.2386,-0.2387,0,0,0,0,0,0,0,0,0,0,0,0,0,-0.2264,-0.2265,-0.2333,-0.2334,-0.2334,-0.2371,-0.2371,-0.2372,-0.2359,-0.2358,-0.2358,-0.2357,-0.2384,-0.2386,-0.2387,0,0,0,0,0,0,0,0,0,0,0,0,0,-0.2296,-0.2265,-0.2333,-0.2333,-0.2334,-0.2371,-0.2372,-0.2372,-0.2359,-0.2358,-0.2357,-0.2356,-0.2383,-0.2386,-0.2388,-0.2422,0,0,-0.2394,-0.2395,0,0,0,0,0,0,0,0,-0.2294,-0.2298,-0.2333,-0.2333,-0.2334,-0.236,-0.2357,-0.2389,-0.236,-0.2348,-0.2357,-0.2356,-0.2377,-0.238,-0.2387,-0.2423,-0.2424,-0.2394,-0.2395,-0.2396,-0.2397,0,0,0,0,0,0,0,-0.2292,-0.2297,-0.2347,-0.2333,-0.2334,-0.2337,-0.234,-0.2363,-0.2367,-0.2349,-0.2349,-0.2355,-0.2377,-0.2386,-0.2388,-0.2425,-0.2394,-0.2396,-0.2397,-0.2398,-0.2476,-0.2477,0,0,0,0,0,0,-0.229,-0.2295,-0.2346,-0.2348,-0.2312,-0.2339,-0.2342,-0.2352,-0.2367,-0.2369,-0.2356,-0.2355,-0.2382,-0.2386,-0.2389,-0.242,-0.2396,-0.2398,-0.2399,-0.2475,-0.2476,-0.2477,0,0,0,0,0,0,-0.2289,-0.2295,-0.2344,-0.2323,-0.2329,-0.2341,-0.2352,-0.2353,-0.2361,-0.2373,-0.2374,-0.2362,-0.2382,-0.2386,-0.241,-0.2421,-0.2399,-0.2401,-0.2475,-0.2476,-0.2477,-0.2489,0,0,0,0,0,0,-0.2287,-0.2294,-0.2299,-0.2323,-0.2331,-0.2369,-0.2353,-0.2355,-0.2367,-0.2365,-0.2379,-0.238,-0.2381,-0.2407,-0.2412,-0.2424,-0.2403,-0.2473,-0.2475,-0.2477,-0.2487,-0.249,-0.2493,0,0,0,0,0,-0.2284,-0.2299,-0.2299,-0.2306,-0.2338,-0.237,-0.2374,-0.2377,-0.2369,-0.2378,-0.2385,-0.238,-0.242,-0.241,-0.2416,-0.2428,-0.2473,-0.2475,-0.2476,-0.2486,-0.249,-0.2493,0,0,0,0,0,0,-0.2272,-0.23,-0.2301,-0.2323,-0.2344,-0.2368,-0.2377,-0.2382,-0.2396,-0.2392,-0.2396,-0.2398,-0.2422,-0.2428,-0.2417,-0.2455,-0.2444,-0.2447,-0.245,-0.2453,-0.2456,-0.2453,-0.2404,0,0,0,0,0,-0.2273,-0.2287,-0.2316,-0.2331,-0.2344,-0.2361,-0.2373,-0.238,-0.2397,-0.2401,-0.241,-0.2421,-0.2437,-0.2446,-0.2461,-0.2489,-0.2476,-0.25,-0.2502,-0.2505,-0.2507,-0.2495,-0.2496,-0.2484,-0.2483,-0.2483,0,0,-0.2272,-0.2288,-0.2296,-0.2329,-0.2344,-0.2371,-0.2365,-0.2389,-0.2408,-0.2404,-0.2428,-0.2433,-0.2446,-0.2471,-0.2482,-0.2476,-0.2501,-0.2507,-0.2509,-0.251,-0.2497,-0.2498,-0.2499,-0.2485,-0.2485,-0.2484,0,0,-0.2278,-0.2293,-0.2307,-0.2331,-0.2361,-0.2377,-0.2386,-0.2415,-0.2422,-0.2452,-0.2448,-0.2459,-0.249,-0.2496,-0.2504,-0.2535,-0.2515,-0.254,-0.2553,-0.2542,-0.2542,-0.2543,-0.2519,-0.2518,-0.2542,-0.2542,-0.2542,0,-0.2273,-0.2297,-0.2317,-0.2343,-0.2361,-0.2382,-0.2406,-0.2427,-0.2458,-0.2467,-0.2461,-0.2494,-0.2502,-0.2525,-0.2532,-0.254,-0.2525,-0.2538,-0.2544,-0.2544,-0.2544,-0.252,-0.2518,-0.2542,-0.2542,-0.2542,-0.2542,0,-0.2293,-0.2315,-0.2329,-0.2365,-0.239,-0.2415,-0.245,-0.2472,-0.2482,-0.2497,-0.2521,-0.2529,-0.2544,-0.255,-0.2552,-0.2562,-0.2548,-0.2545,-0.2531,-0.2545,-0.252,-0.2517,-0.2544,-0.2543,-0.2543,-0.2543,0,0,-0.2264,-0.2329,-0.2331,-0.2351,-0.2402,-0.2424,-0.2465,-0.2501,-0.2521,-0.2542,-0.256,-0.2581,-0.2576,-0.2585,-0.2584,-0.2578,-0.2562,-0.2563,-0.2562,-0.2532,-0.2524,-0.2447,-0.2437,-0.2556,-0.2556,-0.2556,-0.2502,0,-0.2267,-0.2312,-0.2347,-0.2388,-0.2413,-0.2453,-0.2489,-0.2526,-0.255,-0.2576,-0.2583,-0.2601,-0.2593,-0.2596,-0.2589,-0.2578,-0.2557,-0.2576,-0.2522,-0.252,-0.2443,-0.2432,-0.2258,-0.219,-0.2499,-0.2499,-0.2499,0,-0.2264,-0.2297,-0.2336,-0.2398,-0.2412,-0.2442,-0.2493,-0.2531,-0.2578,-0.2596,-0.2613,-0.2621,-0.2629,-0.2611,-0.2586,-0.2597,-0.2558,-0.2539,-0.2536,-0.2459,-0.2438,-0.2228,-0.2174,-0.2494,-0.2494,-0.2495,-0.2495,0,-0.2215,-0.2283,-0.2309,-0.2332,-0.2409,-0.2431,-0.247,-0.2526,-0.2553,-0.2602,-0.2617,-0.2634,-0.2632,-0.2606,-0.2569,-0.2576,-0.2525,-0.2529,-0.2418,-0.2412,-0.225,-0.223,-0.2487,-0.2487,-0.2487,-0.2487,-0.2487,0,-0.2194,-0.2213,-0.2289,-0.2303,-0.2335,-0.2402,-0.2436,-0.2482,-0.2541,-0.2565,-0.2613,-0.2621,-0.2627,-0.2604,-0.2571,-0.2481,-0.252,-0.2411,-0.239,-0.2249,-0.2231,-0.249,-0.2491,-0.2485,-0.2486,-0.2486,-0.2486,0,-0.2124,-0.218,-0.221,-0.2288,-0.231,-0.2328,-0.2405,-0.2429,-0.25,-0.2532,-0.2545,-0.26,-0.2573,-0.2558,-0.2513,-0.2462,-0.2402,-0.2352,-0.2182,-0.2142,-0.2297,-0.2299,-0.223,-0.2227,-0.2224,-0.2222,-0.222,0,-0.2088,-0.2097,-0.2171,-0.2184,-0.2214,-0.2258,-0.2285,-0.2382,-0.2412,-0.2505,-0.2508,-0.2518,-0.2483,-0.2402,-0.2319,-0.2226,-0.2308,-0.2022,-0.2004,-0.2282,-0.2269,-0.2276,-0.2282,-0.1792,-0.1787,-0.1783,-0.1779,0,-0.2007,-0.2033,-0.2059,-0.2086,-0.2115,-0.2148,-0.2201,-0.2219,-0.2328,-0.2354,-0.2378,-0.2362,-0.2304,-0.2136,-0.2035,-0.1965,-0.2031,-0.1931,-0.2248,-0.1892,-0.1867,-0.1856,-0.1876,-0.1741,-0.1745,-0.1747,-0.1749,-0.1751,-0.1929,-0.1923,-0.1954,-0.1965,-0.1998,-0.2006,-0.1987,-0.2053,-0.2068,-0.2079,-0.2175,-0.2094,-0.2075,-0.1823,-0.1714,-0.1628,-0.1769,-0.1694,-0.1708,-0.1727,-0.1694,-0.1665,-0.1495,-0.1497,-0.1499,-0.1501,-0.1502,0,-0.1816,-0.1821,-0.1828,-0.1839,-0.1814,-0.1877,-0.1897,-0.185,-0.181,-0.1854,-0.1841,-0.1649,-0.1529,-0.1513,-0.1313,-0.1268,-0.1258,-0.122,-0.1217,-0.1255,-0.1289,-0.1236,-0.0914,-0.0912,-0.0911,-0.0909,0,0,-0.1758,-0.172,-0.172,-0.164,-0.1643,-0.156,-0.1534,-0.1487,-0.1476,-0.1397,-0.1361,-0.147,-0.1483,-0.1216,-0.1138,-0.0996,-0.1116,-0.094,-0.1412,-0.1448,-0.148,-0.156,-0.152,0,0,0,0,0]},{"header":{"parameterUnit":"m.s-1","parameterCategory":2,"la1":30.2991,"la2":30.254,"lo1":-89.0895,"lo2":-89.0444,"dy":0.0017,"dx":0.0017,"nx":28,"ny":28,"refTime":"2025-01-28T03:00:00:Z","depth":"2","parameterNumber":3,"parameterNumberName":"V-component_of_CURRENTS"},"data":[0,0,0,0,0,0,0,0,0,0,0,0,0,0,0,0,0,0,0,0,0,0,0,0,0,0,0,0,0,0,0,0,0,0,0,0,0,0,0,0,0,0,0,0,0,0,0,0,0,0,0,0,0,0,0,0,0,0,-0.0317,-0.0317,0,-0.0235,-0.0234,-0.0233,-0.0169,-0.0168,-0.0168,-0.0168,-0.0036,-0.0033,-0.003,0,0,0,0,0,0,0,0,0,0,0,0,0,-0.0355,-0.0354,-0.0317,-0.0317,-0.0316,-0.0235,-0.0234,-0.0233,-0.0169,-0.0168,-0.0168,-0.0167,-0.0037,-0.0033,-0.0029,0,0,0,0,0,0,0,0,0,0,0,0,0,-0.0311,-0.0354,-0.0318,-0.0276,-0.0271,-0.0236,-0.0234,-0.0232,-0.0169,-0.0168,-0.0168,-0.0167,-0.0038,-0.0033,-0.0029,-0.0014,0,0,-0.0015,-0.0013,0,0,0,0,0,0,0,0,-0.0313,-0.0309,-0.0283,-0.0278,-0.0273,-0.0213,-0.0199,-0.0157,-0.0169,-0.0206,-0.0168,-0.0167,-0.0092,-0.0083,-0.0067,-0.0008,-0.0002,-0.0014,-0.0012,-0.001,-0.0008,0,0,0,0,0,0,0,-0.0316,-0.0312,-0.0283,-0.0282,-0.0276,-0.0239,-0.0232,-0.019,-0.0152,-0.0203,-0.0198,-0.0192,-0.0089,-0.0072,-0.0064,-0.0,-0.0014,-0.001,-0.0008,-0.0006,0.0085,0.0085,0,0,0,0,0,0,-0.0334,-0.0315,-0.0286,-0.0281,-0.0294,-0.0239,-0.0231,-0.0232,-0.0153,-0.0141,-0.0193,-0.019,-0.008,-0.0069,-0.0059,-0.0034,-0.001,-0.0005,-0.0003,0.0085,0.0085,0.0085,0,0,0,0,0,0,-0.0336,-0.0333,-0.0289,-0.0297,-0.0289,-0.024,-0.024,-0.023,-0.0212,-0.0146,-0.0133,-0.0185,-0.0079,-0.0065,-0.0026,-0.0028,-0.0003,0.0001,0.0086,0.0085,0.0085,0.0015,0,0,0,0,0,0,-0.0337,-0.0334,-0.0339,-0.0299,-0.0289,-0.0275,-0.0241,-0.0229,-0.021,-0.0205,-0.0135,-0.0122,-0.0078,-0.0034,-0.0022,-0.0021,0.0005,0.0086,0.0086,0.0085,0.0018,0.0012,0.0008,0,0,0,0,0,-0.0339,-0.0351,-0.034,-0.0336,-0.0299,-0.0275,-0.0267,-0.0228,-0.0211,-0.0208,-0.0162,-0.0124,-0.003,-0.0031,-0.0016,-0.0014,0.0087,0.0086,0.0085,0.002,0.0013,0.0008,0,0,0,0,0,0,-0.0365,-0.0345,-0.0332,-0.0336,-0.0311,-0.0265,-0.0259,-0.0234,-0.0196,-0.019,-0.0127,-0.0111,-0.0079,-0.004,-0.0043,0.0009,0.0034,0.0036,-0.002,-0.0026,-0.0031,-0.0041,0.0008,0,0,0,0,0,-0.0377,-0.0383,-0.0352,-0.0355,-0.0346,-0.0305,-0.029,-0.0266,-0.0228,-0.021,-0.0163,-0.0113,-0.0072,-0.0045,-0.0004,0.0026,0.0072,0.0036,0.003,0.0026,0.0026,0.0084,0.0085,0.0082,0.0082,0.0082,0,0,-0.0388,-0.0377,-0.0379,-0.0361,-0.0338,-0.0333,-0.0294,-0.0278,-0.0269,-0.0202,-0.0174,-0.0131,-0.007,-0.0039,-0.002,-0.0004,0.0051,0.0024,0.002,0.0023,0.0084,0.0084,0.0084,0.0081,0.0081,0.0082,0,0,-0.0415,-0.0404,-0.0418,-0.0405,-0.0381,-0.0355,-0.0356,-0.0316,-0.0292,-0.0265,-0.0216,-0.0175,-0.0113,-0.0067,-0.0037,-0.0046,0.0017,-0.0036,-0.0062,-0.0006,-0.0005,-0.0004,0.0055,0.0062,-0.0033,-0.0033,-0.0033,0,-0.0429,-0.0443,-0.0417,-0.0426,-0.0419,-0.0371,-0.0381,-0.0351,-0.0303,-0.0284,-0.0267,-0.0173,-0.0125,-0.0076,-0.0081,-0.0056,-0.0015,-0.0045,-0.0013,-0.0011,-0.0008,0.0052,0.0061,-0.0037,-0.0036,-0.0036,-0.0036,0,-0.0466,-0.0476,-0.0482,-0.048,-0.0468,-0.0468,-0.0429,-0.041,-0.0378,-0.0342,-0.0293,-0.0226,-0.0168,-0.0149,-0.0116,-0.0075,-0.0049,-0.0031,0.0001,-0.0012,0.0052,0.0063,-0.0042,-0.004,-0.0039,-0.0039,0,0,-0.0502,-0.051,-0.0512,-0.0524,-0.0498,-0.0495,-0.0478,-0.0447,-0.0433,-0.0378,-0.0349,-0.0279,-0.0238,-0.0201,-0.0149,-0.01,-0.0048,-0.0065,-0.006,-0.001,0.008,0.0109,0.0124,-0.0026,-0.0024,-0.0023,0.0118,0,-0.0538,-0.0578,-0.0563,-0.0589,-0.0604,-0.056,-0.0549,-0.0513,-0.0467,-0.0426,-0.0346,-0.0302,-0.0257,-0.0231,-0.0174,-0.008,-0.0024,-0.0087,0.0089,0.0094,0.0119,0.0135,0.0107,0.0231,0.0128,0.013,0.0131,0,-0.058,-0.0602,-0.0642,-0.0651,-0.0652,-0.0654,-0.0627,-0.061,-0.0536,-0.0498,-0.0431,-0.0366,-0.028,-0.0247,-0.0082,-0.0126,-0.0031,0.0043,0.0051,0.011,0.0142,0.0229,0.0255,0.0149,0.0148,0.0147,0.0146,0,-0.0628,-0.0655,-0.0692,-0.0696,-0.0695,-0.0698,-0.0688,-0.0633,-0.0618,-0.054,-0.0513,-0.0401,-0.034,-0.0212,-0.0055,-0.0068,0.0129,0.0135,0.0256,0.026,0.0288,0.0291,0.0252,0.0252,0.0252,0.0251,0.0251,0,-0.0678,-0.0706,-0.0721,-0.0743,-0.0779,-0.0753,-0.0766,-0.0733,-0.0681,-0.0661,-0.0556,-0.0504,-0.033,-0.0196,-0.0059,0.0138,0.0136,0.0261,0.0301,0.0263,0.0262,0.023,0.0225,0.0257,0.0256,0.0255,0.0254,0,-0.0726,-0.0736,-0.0784,-0.0801,-0.0807,-0.0833,-0.0832,-0.0834,-0.0774,-0.0739,-0.0718,-0.0571,-0.0393,-0.0204,0.0018,0.0136,0.0316,0.0386,0.0331,0.0361,0.0409,0.0399,0.0533,0.0535,0.0537,0.0538,0.054,0,-0.0756,-0.0786,-0.0835,-0.0869,-0.0881,-0.091,-0.0926,-0.0887,-0.0881,-0.0775,-0.0759,-0.0585,-0.0445,-0.0101,0.0132,0.0392,0.0386,0.051,0.0479,0.0414,0.0439,0.0426,0.0414,0.0495,0.0495,0.0496,0.0497,0,-0.0809,-0.0826,-0.0866,-0.094,-0.0976,-0.1013,-0.1027,-0.1037,-0.0976,-0.0916,-0.0802,-0.0679,-0.0351,-0.0069,0.026,0.0405,0.0462,0.0532,0.05,0.0417,0.0387,0.0408,0.0396,0.0503,0.0502,0.0502,0.0501,0.0501,-0.084,-0.0886,-0.0941,-0.1006,-0.1054,-0.1098,-0.1119,-0.1106,-0.1075,-0.0964,-0.0844,-0.0622,-0.0357,0.0114,0.0347,0.056,0.055,0.0603,0.0597,0.0592,0.0551,0.0525,0.066,0.066,0.066,0.0661,0.0661,0,-0.0877,-0.0929,-0.1002,-0.1078,-0.1136,-0.1141,-0.1169,-0.1154,-0.1105,-0.0961,-0.0812,-0.0504,-0.0174,0.0106,0.0447,0.0646,0.0624,0.0675,0.0605,0.0598,0.0592,0.0547,0.0658,0.0659,0.0659,0.066,0,0,-0.0898,-0.0975,-0.1015,-0.1122,-0.1173,-0.1215,-0.1225,-0.1175,-0.107,-0.0916,-0.074,-0.0504,-0.0161,0.0077,0.0328,0.0507,0.05,0.0523,0.0505,0.0386,0.0378,0.0532,0.0455,0,0,0,0,0]}],[{"header":{"parameterUnit":"m.s-1","parameterCategory":2,"la1":30.2991,"la2":30.254,"lo1":-89.0895,"lo2":-89.0444,"dy":0.0017,"dx":0.0017,"nx":28,"ny":28,"refTime":"2025-01-28T03:00:00:Z","depth":"4","parameterNumber":2,"parameterNumberName":"U-component_of_CURRENTS"},"data":[0,0,0,0,0,0,0,0,0,0,0,0,0,0,0,0,0,0,0,0,0,0,0,0,0,0,0,0,0,0,0,0,0,0,0,0,0,0,0,0,0,0,0,0,0,0,0,0,0,0,0,0,0,0,0,0,0,0,-0.1651,-0.1652,0,-0.1723,-0.1723,-0.1724,-0.1768,-0.1768,-0.1768,-0.1769,-0.1861,-0.1863,-0.1865,0,0,0,0,0,0,0,0,0,0,0,0,0,-0.1559,-0.1561,-0.1651,-0.1652,-0.1653,-0.1722,-0.1723,-0.1724,-0.1768,-0.1768,-0.1768,-0.1769,-0.186,-0.1862,-0.1865,0,0,0,0,0,0,0,0,0,0,0,0,0,-0.1611,-0.1561,-0.165,-0.1683,-0.1687,-0.1722,-0.1723,-0.1725,-0.1768,-0.1768,-0.1768,-0.1769,-0.1859,-0.1862,-0.1865,-0.1877,0,0,-0.1875,-0.1877,0,0,0,0,0,0,0,0,-0.1608,-0.1614,-0.1678,-0.1681,-0.1685,-0.1737,-0.1725,-0.1777,-0.1767,-0.1736,-0.1769,-0.1769,-0.1822,-0.1828,-0.1839,-0.1881,-0.1885,-0.1876,-0.1878,-0.1879,-0.188,0,0,0,0,0,0,0,-0.1604,-0.1611,-0.1678,-0.1679,-0.1683,-0.1698,-0.1705,-0.1735,-0.1775,-0.1739,-0.1742,-0.1752,-0.1824,-0.1836,-0.1841,-0.1886,-0.1876,-0.1878,-0.188,-0.1882,-0.2007,-0.2008,0,0,0,0,0,0,-0.1597,-0.1608,-0.1676,-0.1681,-0.1648,-0.1699,-0.1707,-0.172,-0.1775,-0.1783,-0.1751,-0.1753,-0.183,-0.1838,-0.1845,-0.1924,-0.1879,-0.1882,-0.1884,-0.2005,-0.2007,-0.2009,0,0,0,0,0,0,-0.1594,-0.1602,-0.1673,-0.1646,-0.1657,-0.17,-0.1713,-0.1721,-0.1761,-0.1784,-0.1793,-0.1787,-0.183,-0.184,-0.1897,-0.1925,-0.1884,-0.1887,-0.2004,-0.2006,-0.2008,-0.2042,0,0,0,0,0,0,-0.1592,-0.1601,-0.1621,-0.1646,-0.1658,-0.1713,-0.1713,-0.1722,-0.1765,-0.1769,-0.1817,-0.1825,-0.1832,-0.1892,-0.19,-0.1929,-0.1889,-0.2002,-0.2005,-0.2007,-0.2039,-0.2045,-0.205,0,0,0,0,0,-0.1588,-0.161,-0.1622,-0.1631,-0.168,-0.1714,-0.1722,-0.1753,-0.1766,-0.179,-0.1824,-0.1825,-0.1914,-0.1896,-0.1905,-0.1936,-0.2001,-0.2004,-0.2007,-0.2037,-0.2044,-0.205,0,0,0,0,0,0,-0.1585,-0.1618,-0.1631,-0.1664,-0.1695,-0.1722,-0.1751,-0.177,-0.1815,-0.1829,-0.1846,-0.1856,-0.1914,-0.1923,-0.1903,-0.1979,-0.1956,-0.1961,-0.1976,-0.1983,-0.1988,-0.1981,-0.1892,0,0,0,0,0,-0.1592,-0.1618,-0.1648,-0.1678,-0.1696,-0.1729,-0.1753,-0.1775,-0.181,-0.1832,-0.1864,-0.1899,-0.1929,-0.1955,-0.1982,-0.203,-0.2013,-0.2054,-0.206,-0.2064,-0.2065,-0.2061,-0.2066,-0.2019,-0.2019,-0.2019,0,0,-0.16,-0.1621,-0.1638,-0.168,-0.1707,-0.1741,-0.1745,-0.1791,-0.1826,-0.1834,-0.1902,-0.1923,-0.1946,-0.1995,-0.2021,-0.2011,-0.2069,-0.2068,-0.2072,-0.207,-0.2065,-0.2069,-0.2073,-0.2021,-0.202,-0.202,0,0,-0.1617,-0.1648,-0.1672,-0.1703,-0.1749,-0.177,-0.1789,-0.1835,-0.1866,-0.1926,-0.1936,-0.1975,-0.2033,-0.2048,-0.2062,-0.2116,-0.2096,-0.2131,-0.2157,-0.2154,-0.2157,-0.216,-0.2139,-0.2139,-0.2135,-0.2135,-0.2135,0,-0.1627,-0.1659,-0.1687,-0.1719,-0.1749,-0.1786,-0.1822,-0.1858,-0.1919,-0.1945,-0.1956,-0.2032,-0.2054,-0.2097,-0.2116,-0.2128,-0.2115,-0.2129,-0.2159,-0.2161,-0.2163,-0.2141,-0.2141,-0.2137,-0.2137,-0.2137,-0.2137,0,-0.1651,-0.1692,-0.1712,-0.1763,-0.18,-0.1839,-0.1886,-0.1933,-0.1974,-0.2002,-0.2066,-0.2093,-0.2132,-0.2148,-0.2153,-0.2186,-0.2168,-0.2162,-0.2137,-0.217,-0.2145,-0.2144,-0.214,-0.2139,-0.2139,-0.2138,0,0,-0.1631,-0.1713,-0.1723,-0.1756,-0.1828,-0.1857,-0.1923,-0.198,-0.202,-0.2078,-0.2123,-0.2175,-0.2185,-0.2201,-0.2211,-0.2215,-0.222,-0.2201,-0.22,-0.2171,-0.22,-0.206,-0.2045,-0.2219,-0.2219,-0.222,-0.2174,0,-0.1643,-0.1705,-0.1747,-0.1816,-0.185,-0.1909,-0.1963,-0.2023,-0.2073,-0.2127,-0.2158,-0.2205,-0.2207,-0.2229,-0.2235,-0.2229,-0.2222,-0.2232,-0.2182,-0.218,-0.2043,-0.2041,-0.2221,-0.2173,-0.2173,-0.2173,-0.2173,0,-0.1642,-0.1688,-0.1754,-0.184,-0.1862,-0.1913,-0.1998,-0.2052,-0.2128,-0.2166,-0.2212,-0.2236,-0.2268,-0.2258,-0.2254,-0.2261,-0.2234,-0.2219,-0.2217,-0.2072,-0.2037,-0.2137,-0.2172,-0.2172,-0.2172,-0.2172,-0.2172,0,-0.1594,-0.1688,-0.1743,-0.1774,-0.1877,-0.1924,-0.1982,-0.2066,-0.2107,-0.219,-0.2217,-0.2262,-0.228,-0.2269,-0.2246,-0.2254,-0.2219,-0.2221,-0.2064,-0.2054,-0.218,-0.2178,-0.22,-0.22,-0.22,-0.22,-0.22,0,-0.1569,-0.1616,-0.1731,-0.176,-0.1825,-0.1909,-0.1978,-0.2042,-0.2123,-0.2155,-0.223,-0.2242,-0.2284,-0.2272,-0.2248,-0.2142,-0.2216,-0.2056,-0.2029,-0.2196,-0.2196,-0.2179,-0.2177,-0.2199,-0.2199,-0.2199,-0.22,0,-0.1497,-0.1578,-0.1644,-0.1764,-0.1804,-0.185,-0.1964,-0.2,-0.2094,-0.2136,-0.216,-0.2228,-0.2205,-0.2214,-0.2188,-0.2117,-0.2051,-0.1993,-0.216,-0.2145,-0.1889,-0.1891,-0.181,-0.1804,-0.1799,-0.1796,-0.1792,0,-0.1461,-0.149,-0.1624,-0.1661,-0.172,-0.1804,-0.185,-0.1968,-0.1998,-0.2099,-0.2095,-0.2123,-0.2144,-0.1982,-0.2021,-0.1945,-0.1923,-0.1877,-0.1891,-0.1866,-0.1848,-0.1856,-0.1863,-0.1785,-0.1784,-0.1783,-0.1781,0,-0.1383,-0.1446,-0.15,-0.1573,-0.1638,-0.1692,-0.177,-0.1775,-0.189,-0.1998,-0.1961,-0.1937,-0.1904,-0.1874,-0.1821,-0.1777,-0.1905,-0.1829,-0.1838,-0.1851,-0.1835,-0.1824,-0.1836,-0.1765,-0.1768,-0.1769,-0.177,0,-0.1322,-0.1337,-0.1413,-0.146,-0.1534,-0.1545,-0.1608,-0.1631,-0.1674,-0.1793,-0.1775,-0.1808,-0.1879,-0.1784,-0.1743,-0.168,-0.1657,-0.1603,-0.1624,-0.1642,-0.1609,-0.1566,-0.1374,0,0,0,0,0,-0.1249,-0.125,-0.1288,-0.1333,-0.1398,-0.1433,-0.1531,-0.1595,-0.171,-0.1632,-0.1697,-0.1659,-0.1597,-0.1623,-0.1518,-0.1665,-0.1664,-0.1538,-0.1615,-0.1677,-0.1695,-0.1671,0,0,0,0,0,0,-0.1201,-0.1236,-0.1243,-0.1206,-0.1206,-0.1258,-0.1309,-0.1394,-0.1361,-0.1484,-0.1453,-0.1551,-0.151,-0.1618,-0.1479,-0.1485,-0.1497,-0.1574,-0.1569,-0.1666,-0.1683,-0.1698,-0.168,0,0,0,0,0]},{"header":{"parameterUnit":"m.s-1","parameterCategory":2,"la1":30.2991,"la2":30.254,"lo1":-89.0895,"lo2":-89.0444,"dy":0.0017,"dx":0.0017,"nx":28,"ny":28,"refTime":"2025-01-28T03:00:00:Z","depth":"4","parameterNumber":3,"parameterNumberName":"V-component_of_CURRENTS"},"data":[0,0,0,0,0,0,0,0,0,0,0,0,0,0,0,0,0,0,0,0,0,0,0,0,0,0,0,0,0,0,0,0,0,0,0,0,0,0,0,0,0,0,0,0,0,0,0,0,0,0,0,0,0,0,0,0,0,0,-0.025,-0.0249,0,-0.0196,-0.0196,-0.0195,-0.0152,-0.0152,-0.0151,-0.0151,-0.0051,-0.0049,-0.0047,0,0,0,0,0,0,0,0,0,0,0,0,0,-0.0265,-0.0266,-0.025,-0.0249,-0.0249,-0.0197,-0.0196,-0.0195,-0.0152,-0.0152,-0.0151,-0.0151,-0.0052,-0.0049,-0.0047,0,0,0,0,0,0,0,0,0,0,0,0,0,-0.0239,-0.0266,-0.025,-0.0222,-0.0219,-0.0197,-0.0196,-0.0195,-0.0152,-0.0152,-0.0151,-0.0151,-0.0053,-0.005,-0.0046,-0.0033,0,0,-0.0035,-0.0034,0,0,0,0,0,0,0,0,-0.024,-0.0238,-0.0227,-0.0224,-0.0221,-0.0182,-0.0165,-0.0139,-0.0152,-0.0176,-0.0151,-0.015,-0.0092,-0.0085,-0.0075,-0.0029,-0.0024,-0.0035,-0.0033,-0.0031,-0.003,0,0,0,0,0,0,0,-0.0242,-0.024,-0.0227,-0.0226,-0.0223,-0.0196,-0.0192,-0.0159,-0.0135,-0.0174,-0.0171,-0.0168,-0.009,-0.0078,-0.0072,-0.0023,-0.0035,-0.0032,-0.003,-0.0028,0.0042,0.0042,0,0,0,0,0,0,-0.0255,-0.0242,-0.0229,-0.0226,-0.0231,-0.0196,-0.0192,-0.0193,-0.0136,-0.0128,-0.0168,-0.0166,-0.0085,-0.0076,-0.0068,-0.005,-0.0031,-0.0028,-0.0026,0.0043,0.0042,0.0042,0,0,0,0,0,0,-0.0256,-0.0255,-0.0231,-0.0233,-0.0229,-0.0197,-0.0199,-0.0193,-0.0182,-0.0133,-0.0123,-0.0165,-0.0084,-0.0073,-0.0045,-0.0045,-0.0026,-0.0023,0.0043,0.0042,0.0042,-0.0012,0,0,0,0,0,0,-0.0257,-0.0255,-0.0262,-0.0235,-0.0229,-0.0224,-0.0199,-0.0192,-0.0182,-0.0178,-0.0127,-0.0117,-0.0083,-0.0051,-0.0041,-0.004,-0.002,0.0043,0.0043,0.0042,-0.001,-0.0014,-0.0018,0,0,0,0,0,-0.0257,-0.0269,-0.0263,-0.0261,-0.0239,-0.0225,-0.0219,-0.0193,-0.0182,-0.0182,-0.0148,-0.0119,-0.0047,-0.0048,-0.0037,-0.0035,0.0043,0.0043,0.0042,-0.0008,-0.0013,-0.0018,0,0,0,0,0,0,-0.0276,-0.0265,-0.0258,-0.0265,-0.025,-0.0218,-0.0216,-0.02,-0.0173,-0.0169,-0.0121,-0.011,-0.0086,-0.0055,-0.0057,-0.0017,0.0003,0.0005,-0.0039,-0.0043,-0.0047,-0.0056,-0.0017,0,0,0,0,0,-0.0286,-0.0294,-0.0274,-0.028,-0.0275,-0.0248,-0.0239,-0.0223,-0.0197,-0.0185,-0.015,-0.0112,-0.0079,-0.0059,-0.0027,-0.0004,0.0033,0.0004,0.0,-0.0003,-0.0003,0.0048,0.0049,0.004,0.004,0.004,0,0,-0.0295,-0.029,-0.0294,-0.0285,-0.0271,-0.0269,-0.0241,-0.0234,-0.0228,-0.0178,-0.016,-0.0126,-0.0078,-0.0054,-0.0039,-0.0027,0.0018,-0.0004,-0.0008,-0.0005,0.0047,0.0048,0.0049,0.004,0.004,0.004,0,0,-0.0317,-0.0313,-0.0326,-0.0319,-0.0306,-0.0288,-0.029,-0.0264,-0.0249,-0.0231,-0.0192,-0.016,-0.0114,-0.0076,-0.0051,-0.0058,-0.0008,-0.005,-0.0071,-0.0022,-0.002,-0.0019,0.0027,0.0033,-0.0048,-0.0048,-0.0048,0,-0.0328,-0.0342,-0.0327,-0.0335,-0.0333,-0.0302,-0.0311,-0.0291,-0.0258,-0.0245,-0.0233,-0.0161,-0.0122,-0.008,-0.0084,-0.0065,-0.0032,-0.0057,-0.0027,-0.0024,-0.0022,0.0025,0.0032,-0.0051,-0.005,-0.005,-0.005,0,-0.0356,-0.0368,-0.0375,-0.0377,-0.0372,-0.0375,-0.0349,-0.0338,-0.0317,-0.0292,-0.0254,-0.0201,-0.0156,-0.0139,-0.0113,-0.0076,-0.0058,-0.0042,-0.0016,-0.0024,0.0026,0.0034,-0.0055,-0.0054,-0.0053,-0.0052,0,0,-0.0381,-0.0394,-0.0397,-0.041,-0.0396,-0.0397,-0.0387,-0.0367,-0.036,-0.0319,-0.03,-0.0241,-0.0209,-0.0179,-0.0137,-0.0093,-0.0049,-0.0066,-0.0062,-0.0023,0.0058,0.004,0.0049,-0.0029,-0.0027,-0.0026,0.0084,0,-0.0408,-0.0442,-0.0435,-0.0461,-0.0474,-0.0447,-0.0443,-0.0419,-0.0388,-0.0361,-0.0295,-0.0263,-0.0224,-0.0205,-0.0154,-0.0078,-0.0028,-0.008,0.0063,0.0067,0.005,0.0057,-0.0022,0.0091,0.0093,0.0095,0.0096,0,-0.0436,-0.0457,-0.0493,-0.0509,-0.0512,-0.0521,-0.0509,-0.05,-0.0447,-0.0421,-0.0368,-0.0317,-0.0245,-0.0216,-0.0078,-0.0115,-0.0034,0.0028,0.0035,0.0043,0.0065,0.0104,0.0112,0.0111,0.011,0.0109,0.0108,0,-0.0467,-0.0496,-0.0531,-0.0537,-0.0547,-0.0556,-0.0556,-0.0521,-0.0515,-0.0458,-0.0441,-0.0347,-0.03,-0.019,-0.0062,-0.0068,0.0091,0.0103,0.0168,0.0168,0.0176,0.0173,0.0205,0.0205,0.0204,0.0204,0.0204,0,-0.0496,-0.0525,-0.0554,-0.0574,-0.0613,-0.0601,-0.0624,-0.0603,-0.0572,-0.0561,-0.0478,-0.044,-0.0293,-0.0185,-0.0068,0.0075,0.0093,0.0168,0.0196,0.015,0.0143,0.0182,0.0178,0.0208,0.0207,0.0207,0.0206,0,-0.0522,-0.054,-0.0588,-0.0619,-0.0633,-0.0662,-0.0682,-0.069,-0.0652,-0.0633,-0.0618,-0.0504,-0.0364,-0.0209,-0.0023,0.006,0.0201,0.0251,0.0189,0.0212,0.0249,0.0241,0.0332,0.0332,0.0332,0.0333,0.0333,0,-0.0537,-0.0565,-0.0629,-0.0667,-0.0688,-0.0728,-0.0753,-0.0735,-0.0734,-0.0667,-0.0654,-0.0526,-0.0434,-0.0175,-0.0022,0.0203,0.0231,0.0299,0.0273,0.0244,0.0263,0.0254,0.0246,0.0333,0.0333,0.0333,0.0333,0,-0.0564,-0.0594,-0.0633,-0.0715,-0.0762,-0.0806,-0.0833,-0.0838,-0.0803,-0.0773,-0.0667,-0.053,-0.0372,-0.0177,-0.0004,0.0155,0.0247,0.0302,0.0303,0.0279,0.0247,0.0264,0.0255,0.0334,0.0334,0.0334,0.0334,0,-0.0583,-0.0623,-0.0684,-0.0749,-0.0816,-0.0859,-0.0872,-0.0853,-0.0839,-0.0752,-0.0718,-0.0536,-0.0427,-0.0201,-0.0041,0.011,0.0144,0.0182,0.0189,0.019,0.0107,0.0043,0.0095,0,0,0,0,0,-0.0595,-0.0643,-0.0713,-0.0785,-0.0853,-0.0884,-0.0912,-0.0909,-0.0877,-0.0805,-0.0755,-0.0599,-0.0353,-0.0243,-0.0093,-0.0053,0.0152,0.0123,0.0195,0.0339,0.0338,0.0262,0,0,0,0,0,0,-0.0606,-0.0675,-0.0712,-0.0797,-0.085,-0.0912,-0.093,-0.091,-0.0856,-0.0801,-0.0663,-0.0577,-0.0334,-0.0433,-0.0093,-0.0048,0.0013,0.0246,0.0249,0.034,0.0339,0.0338,0.026,0,0,0,0,0]}]]